RADUGA 24 [-]

Last updated on Jan. 18, 2020, 4:38 a.m. UTC

1 20367U 89098A   20017.39143168 -.00000274  00000-0  00000-0 0  9991
2 20367  14.8257 352.8944 0003422 335.4555  22.7519  1.00221360109475
UTC
Height (km)
Latitude
Longitude
Inclination
Orbital Period
UTC large
Height (km)
Speed (km/s)
/
Latitude / Longitude
Inclination (degrees)
Orbital Period (minutes)
Azimuth
Elevation
Range (km)
Doppler Factor
iOS Compass Heading
iOS Angle

Next 30 passes for location: Hong Kong

Rise time Rise Azimuth (degrees) Set time Set Azimuth (degrees) Duration Max altitude (degrees)

No matching passes for this satellites